Eastover, SC

10:46 AM EST on November 23, 2017 (GMT -0500)
McEntire Angs

Weather History for KMMT - March, 2014

Change the Weather History Date:

Wednesday, March 19, 2014

  Actual Average Record
Temperature  
Mean Temperature 48 °F -  
Max Temperature 55 °F 65 °F 86 °F (2012)
Min Temperature 40 °F 45 °F 33 °F (2007)
Degree Days  
Heating Degree Days 18    
Moisture  
Dew Point 42 °F    
Average Humidity 92    
Maximum Humidity 100    
Minimum Humidity 68    
Precipitation  
Precipitation 0.00 in - - ()
Sea Level Pressure  
Sea Level Pressure 30.14 in    
Wind  
Wind Speed 4 mph (NNW)    
Max Wind Speed 7 mph    
Max Gust Speed -    
Visibility 7 miles    
Events      
Averages and records for this station are not official NWS values.
T = Trace of Precipitation, MM = Missing Value Source: NWS Daily Summary

Daily Weather History Graph

Daily Weather History Graph

Search for Another Location

Airport or City:

Trip Planner

Search our weather history database for the weather conditions in past years. The results will help you decide how hot, cold, wet, or windy it might be!

Date:

Astronomy

Mar. 19, 2014 Rise Set
Actual Time 7:28 AM EDT 7:34 PM EDT
Civil Twilight 7:03 AM EDT 7:59 PM EDT
Nautical Twilight 6:34 AM EDT 8:28 PM EDT
Astronomical Twilight 6:05 AM EDT 8:57 PM EDT
Moon 10:41 PM EDT (3/19) 9:01 AM EDT (3/19)
Length of Visible Light 12h 55m
Length of Day
12h 05m
Waning Gibbous, 91% of the Moon is Illuminated
Mar 19
Waning Gibbous
Mar 23
Last Quarter
Mar 30
New
Apr 7
First Quarter
Apr 15
Full

Hourly Weather History & Observations

Time (EDT) Temp. Windchill Dew Point Humidity Pressure Visibility Wind Dir Wind Speed Gust Speed Precip Events Conditions
12:08 AM 41.0 °F 37.1 °F 39.2 °F 93% 30.14 in 10.0 mi ENE 5.8 mph - N/A   Overcast
12:48 AM 41.0 °F 39.0 °F 39.2 °F 93% 30.14 in 10.0 mi NNE 3.5 mph - N/A   Overcast
12:58 AM 41.5 °F 37.8 °F 39.6 °F 93% 30.15 in 10.0 mi North 5.8 mph - N/A   Overcast
1:58 AM 41.4 °F 39.4 °F 39.4 °F 93% 30.17 in 10.0 mi North 3.5 mph - N/A   Overcast
2:08 AM 41.0 °F 37.1 °F 39.2 °F 93% 30.16 in 10.0 mi Variable 5.8 mph - N/A   Overcast
2:28 AM 41.0 °F 38.0 °F 39.2 °F 93% 30.17 in 8.0 mi North 4.6 mph - N/A   Overcast
2:38 AM 41.0 °F 38.0 °F 39.2 °F 93% 30.17 in 6.0 mi NNW 4.6 mph - N/A   Overcast
2:58 AM 41.4 °F 37.6 °F 40.5 °F 97% 30.17 in 4.0 mi North 5.8 mph - N/A   Overcast
3:58 AM 40.6 °F - 40.5 °F 99% 30.17 in 4.0 mi Variable 2.3 mph - N/A   Overcast
4:58 AM 40.8 °F 37.8 °F 40.6 °F 99% 30.17 in 3.0 mi Variable 4.6 mph - N/A   Overcast
5:08 AM 41.0 °F 37.1 °F 41.0 °F 100% 30.15 in 2.5 mi Variable 5.8 mph - N/A   Overcast
5:18 AM 41.0 °F 37.1 °F 41.0 °F 100% 30.15 in 3.0 mi North 5.8 mph - N/A   Overcast
5:28 AM 41.0 °F 38.0 °F 41.0 °F 100% 30.15 in 5.0 mi NNE 4.6 mph - N/A   Overcast
5:58 AM 40.6 °F 36.7 °F 40.5 °F 99% 30.17 in 6.0 mi North 5.8 mph - N/A   Overcast
6:18 AM 41.0 °F 38.0 °F 41.0 °F 100% 30.16 in 8.0 mi NNE 4.6 mph - N/A   Overcast
6:28 AM 41.0 °F 39.0 °F 39.2 °F 93% 30.16 in 6.0 mi NNE 3.5 mph - N/A   Overcast
6:48 AM 41.0 °F - 39.2 °F 93% 30.16 in 10.0 mi NE 2.3 mph - N/A   Overcast
6:58 AM 40.1 °F 36.9 °F 39.9 °F 99% 30.17 in 3.0 mi Variable 4.6 mph - N/A   Overcast
7:58 AM 40.6 °F 36.7 °F 40.1 °F 98% 30.19 in 1.2 mi NNW 5.8 mph - N/A   Overcast
8:08 AM 41.0 °F 37.1 °F 41.0 °F 100% 30.19 in 0.8 mi North 5.8 mph - N/A   Overcast
8:18 AM 41.0 °F 38.0 °F 41.0 °F 100% 30.19 in 0.8 mi NNW 4.6 mph - N/A   Overcast
8:58 AM 40.8 °F 38.8 °F 40.6 °F 99% 30.20 in 1.2 mi Variable 3.5 mph - N/A   Overcast
9:18 AM 41.0 °F 39.0 °F 41.0 °F 100% 30.18 in 1.5 mi NE 3.5 mph - N/A   Overcast
9:28 AM 41.0 °F 39.0 °F 41.0 °F 100% 30.18 in 2.0 mi Variable 3.5 mph - N/A   Overcast
9:38 AM 41.0 °F 37.1 °F 41.0 °F 100% 30.18 in 3.0 mi NE 5.8 mph - N/A   Overcast
9:58 AM 41.9 °F 39.0 °F 41.4 °F 98% 30.19 in 5.0 mi NNE 4.6 mph - N/A   Overcast
10:25 AM 42.8 °F - 41.0 °F 93% 30.19 in 7.0 mi Calm Calm - N/A   Overcast
10:48 AM 42.8 °F - 41.0 °F 93% 30.19 in 7.0 mi West 2.3 mph - N/A   Overcast
10:58 AM 43.2 °F - 40.3 °F 90% 30.19 in 7.0 mi Calm Calm - N/A   Overcast
11:18 AM 42.8 °F - 41.0 °F 93% 30.19 in 7.0 mi Calm Calm - N/A   Overcast
11:58 AM 44.6 °F 43.1 °F 41.0 °F 87% 30.19 in 10.0 mi WNW 3.5 mph - N/A   Overcast
12:55 PM 45.3 °F 41.6 °F 41.2 °F 85% 30.18 in 7.0 mi WSW 6.9 mph - N/A   Overcast
12:58 PM 45.3 °F 41.6 °F 41.2 °F 85% 30.18 in 10.0 mi WSW 6.9 mph - N/A   Overcast
1:24 PM 46.4 °F 42.9 °F 41.0 °F 81% 30.17 in 10.0 mi WSW 6.9 mph - N/A   Overcast
1:28 PM 46.4 °F 43.5 °F 41.0 °F 81% 30.16 in 10.0 mi SW 5.8 mph - N/A   Overcast
1:55 PM 46.2 °F 42.7 °F 41.5 °F 84% 30.16 in 7.0 mi WSW 6.9 mph - N/A   Overcast
2:58 PM 47.3 °F - 42.3 °F 83% 30.12 in 10.0 mi WSW 5.8 mph - N/A   Overcast
3:02 PM 48.2 °F - 42.8 °F 82% 30.10 in 10.0 mi WSW 5.8 mph - N/A   Overcast
3:58 PM 51.3 °F - 43.7 °F 75% 30.09 in 10.0 mi WSW 4.6 mph - N/A   Mostly Cloudy
4:58 PM 52.9 °F - 44.2 °F 72% 30.07 in 10.0 mi WNW 3.5 mph - N/A   Mostly Cloudy
5:08 PM 53.6 °F - 44.6 °F 72% 30.06 in 10.0 mi WNW 4.6 mph - N/A   Mostly Cloudy
5:18 PM 53.6 °F - 44.6 °F 72% 30.06 in 10.0 mi WSW 4.6 mph - N/A   Scattered Clouds
5:58 PM 55.2 °F - 45.0 °F 68% 30.04 in 10.0 mi NNW 2.3 mph - N/A   Mostly Cloudy
6:58 PM 55.2 °F - 45.5 °F 70% 30.05 in 10.0 mi Calm Calm - N/A   Mostly Cloudy
7:58 PM 51.1 °F - 45.7 °F 82% 30.06 in 10.0 mi Calm Calm - N/A   Mostly Cloudy
8:58 PM 46.6 °F - 45.9 °F 97% 30.06 in 10.0 mi South 3.5 mph - N/A   Scattered Clouds
9:58 PM 44.8 °F 41.6 °F 44.4 °F 99% 30.05 in 10.0 mi SE 5.8 mph - N/A   Scattered Clouds
10:58 PM 44.4 °F - 44.2 °F 99% 30.05 in 10.0 mi Calm Calm - N/A   Scattered Clouds
11:08 PM 44.6 °F - 42.8 °F 93% 30.04 in 3.0 mi Calm Calm - N/A   Clear
11:38 PM 42.8 °F - 42.8 °F 100% 30.04 in 2.5 mi Calm Calm - N/A   Clear
11:48 PM 42.8 °F - 42.8 °F 100% 30.04 in 1.8 mi North 2.3 mph - N/A   Clear
11:58 PM 41.9 °F - 41.7 °F 99% 30.05 in 1.0 mi Calm Calm - N/A   Clear